TimeCST,TemperatureF,Dew PointF,Humidity,Sea Level PressureIn,VisibilityMPH,Wind Direction,Wind SpeedMPH,Gust SpeedMPH,PrecipitationIn,Events,Conditions,WindDirDegrees,DateUTC
12:53 AM,68.0,63.0,84,30.10,10.0,South,9.2,-,N/A,,Clear,170,2013-01-26 06:53:00
1:53 AM,68.0,63.0,84,30.10,9.0,SSE,10.4,-,N/A,,Partly Cloudy,160,2013-01-26 07:53:00
2:53 AM,66.9,63.0,87,30.09,8.0,SSE,9.2,-,N/A,,Clear,160,2013-01-26 08:53:00
3:53 AM,66.9,63.0,87,30.09,9.0,SSE,8.1,-,N/A,,Clear,160,2013-01-26 09:53:00
4:53 AM,66.9,62.1,84,30.08,9.0,SSE,9.2,-,N/A,,Clear,160,2013-01-26 10:53:00
5:53 AM,66.0,61.0,84,30.08,10.0,SSE,10.4,-,N/A,,Clear,160,2013-01-26 11:53:00
6:53 AM,64.9,61.0,87,30.10,10.0,SSE,8.1,-,N/A,,Clear,160,2013-01-26 12:53:00
7:53 AM,66.0,61.0,84,30.11,9.0,SSE,5.8,-,N/A,,Clear,160,2013-01-26 13:53:00
8:53 AM,71.1,63.0,75,30.12,8.0,South,12.7,-,N/A,,Clear,170,2013-01-26 14:53:00
9:53 AM,75.0,62.1,64,30.14,9.0,South,15.0,-,N/A,,Clear,170,2013-01-26 15:53:00
10:53 AM,78.1,60.1,54,30.13,9.0,SSE,16.1,25.3,N/A,,Partly Cloudy,160,2013-01-26 16:53:00
11:53 AM,79.0,59.0,50,30.12,9.0,SSE,18.4,-,N/A,,Clear,160,2013-01-26 17:53:00
12:53 PM,81.0,59.0,47,30.09,10.0,SSE,18.4,-,N/A,,Clear,150,2013-01-26 18:53:00
1:53 PM,80.1,59.0,48,30.06,9.0,SSE,17.3,26.5,N/A,,Clear,160,2013-01-26 19:53:00
2:53 PM,81.0,57.0,44,30.05,10.0,SSE,16.1,-,N/A,,Clear,160,2013-01-26 20:53:00
3:53 PM,79.0,59.0,50,30.03,9.0,SE,18.4,28.8,N/A,,Clear,140,2013-01-26 21:53:00
4:53 PM,75.9,62.1,62,30.04,9.0,ESE,13.8,-,N/A,,Clear,110,2013-01-26 22:53:00
5:53 PM,72.0,63.0,73,30.05,9.0,ESE,9.2,-,N/A,,Clear,120,2013-01-26 23:53:00
6:53 PM,70.0,63.0,78,30.06,10.0,ESE,9.2,-,N/A,,Scattered Clouds,120,2013-01-27 00:53:00
7:53 PM,69.1,63.0,81,30.07,10.0,ESE,11.5,-,N/A,,Partly Cloudy,120,2013-01-27 01:53:00
8:53 PM,69.1,63.0,81,30.08,9.0,SE,12.7,-,N/A,,Clear,130,2013-01-27 02:53:00
9:53 PM,69.1,64.0,84,30.09,9.0,SE,9.2,-,N/A,,Partly Cloudy,130,2013-01-27 03:53:00
10:53 PM,70.0,64.9,84,30.10,9.0,SE,12.7,-,N/A,,Scattered Clouds,130,2013-01-27 04:53:00
11:53 PM,69.1,64.9,87,30.09,9.0,SE,10.4,-,N/A,,Partly Cloudy,130,2013-01-27 05:53:00